Terminal Aerodrome Forecast
Issued by NWS Pittsburgh, PA

Current Version | Previous Version | Graphics & Text | Print | Product List | Glossary On
Versions: 1 2 3 4 5 6 7 8 9 10 11 12 13 14 15 16 17 18 19 20 21 22 23 24 25 26 27 28 29 30
597
FTUS41 KPBZ 032320
TAFPIT
TAF
KPIT 032320Z 0400/0506 26004KT P6SM SCT020 OVC029
     FM040200 VRB03KT P6SM OVC035
     FM041200 16003KT P6SM OVC090
     FM050300 14004KT 6SM -SHSN OVC050=

USA.gov is the U.S. government's official web portal to all federal, state and local government web resources and services.